Starlink 4430

operational
NORAD ID: 53485 Int'l Des: 2022-099 Owner: SPXS Country: US Constellation: starlink
LEOCIRCULARRETROGRADESSO

Starlink 4430について

説明を読み込み中...

リアルタイム位置

3D地球を読み込み中...

次回通過

高度履歴

Altitude vs Time

uPlot chart will show altitude changes over time

軌道要素

1 53485U 22099W 25352.31365244 -.00001213 00000-0 -89936-4 0 9990
2 53485 97.6018 110.5401 0000727 224.8867 135.2299 15.01260713183776
Epoch: Dec 18, 2025 • Age: 8 hours

現在のステータス

高度 566.2 km
速度 7.58 km/s
衛星直下点 21.53°N, 146.04°E
打ち上げ日 Aug 12, 2022
運用期間 3.3 years
タイプ internet

技術仕様

分類 Payload
質量 300.00 kg
乾燥質量 275.00 kg
総質量 300.00 kg
長さ 0.20 m
直径 2.80 m
スパン 9.00 m
形状 Box + pan
製造者 SPXS
バスタイプ Starlink
フェーズステータス In Orbit
所有者/国 SPXS/US

大規模コンステレーション

Loading constellations...